Lawrenceville, GA

5:26 AM EST on December 09, 2019 (GMT -0500)
Gwinnett County-Briscoe

Weather History for KLZU - September, 2019

Change the Weather History Date:

Wednesday, September 4, 2019

  Actual Average (KWDR) Record (KWDR)
Temperature  
Mean Temperature 80 °F -  
Max Temperature 95 °F 84 °F 96 °F (1962)
Min Temperature 68 °F 64 °F 54 °F (1974)
Cooling Degree Days 16    
Growing Degree Days 30 (Base 50)    
Moisture  
Dew Point 69 °F    
Average Humidity 69    
Maximum Humidity 97    
Minimum Humidity 41    
Precipitation  
Precipitation 0.00 in - - ()
Sea Level Pressure  
Sea Level Pressure 30.00 in    
Wind  
Wind Speed 2 mph (ENE)    
Max Wind Speed 7 mph    
Max Gust Speed -    
Visibility 10 miles    
Events      
Averages and records for this station are not official NWS values.
T = Trace of Precipitation, MM = Missing Value Source: NWS Daily Summary

Daily Weather History Graph

Daily Weather History Graph

Search for Another Location

Airport or City:

Astronomy

Sep. 04, 2019 Rise Set
Actual Time 7:11 AM EDT 7:57 PM EDT
Civil Twilight 6:45 AM EDT 8:23 PM EDT
Nautical Twilight 6:15 AM EDT 8:53 PM EDT
Astronomical Twilight 5:45 AM EDT 9:23 PM EDT
Moon 12:55 PM EDT (9/4) 11:48 PM EDT (9/4)
Length of Visible Light 13h 37m
Length of Day
12h 46m
Waxing Crescent, 34% of the Moon is Illuminated
Sep 4
Waxing Crescent
Sep 5
First Quarter
Sep 14
Full
Sep 21
Last Quarter
Sep 28
New

Hourly Weather History & Observations

Time (EDT) Temp. Heat Index Dew Point Humidity Pressure Visibility Wind Dir Wind Speed Gust Speed Precip Events Conditions
12:56 AM 71.1 °F - 70.0 °F 96% 30.01 in 10.0 mi Calm Calm - N/A   Clear
1:56 AM 70.0 °F - 69.1 °F 97% 30.01 in 10.0 mi Calm Calm - N/A   Clear
2:56 AM 69.1 °F - 68.0 °F 96% 30.01 in 10.0 mi Calm Calm - N/A   Clear
4:56 AM 68.0 °F - 66.9 °F 96% 30.00 in 10.0 mi Calm Calm - N/A   Clear
5:56 AM 69.1 °F - 68.0 °F 96% 30.02 in 10.0 mi Calm Calm - N/A   Clear
6:56 AM 69.1 °F - 66.9 °F 93% 30.04 in 7.0 mi Calm Calm - N/A   Clear
7:56 AM 73.0 °F - 68.0 °F 84% 30.07 in 10.0 mi NE 3.5 mph - N/A   Clear
8:56 AM 77.0 °F - 69.1 °F 76% 30.06 in 10.0 mi ENE 5.8 mph - N/A   Clear
9:56 AM 80.1 °F 83.2 °F 70.0 °F 71% 30.07 in 10.0 mi NE 5.8 mph - N/A   Clear
10:56 AM 84.9 °F 90.7 °F 72.0 °F 65% 30.06 in 10.0 mi North - - N/A   Clear
11:56 AM 88.0 °F 93.8 °F 71.1 °F 57% 30.06 in 6.0 mi Variable 4.6 mph - N/A   Haze
12:56 PM 89.1 °F 94.1 °F 70.0 °F 53% 30.04 in 10.0 mi Variable 5.8 mph - N/A   Partly Cloudy
1:56 PM 91.0 °F 95.6 °F 69.1 °F 48% 30.01 in 10.0 mi NE 6.9 mph - N/A   Clear
2:56 PM 93.0 °F 97.9 °F 69.1 °F 45% 29.99 in 10.0 mi ENE 6.9 mph - N/A   Partly Cloudy
4:56 PM 93.9 °F 97.5 °F 66.9 °F 41% 29.95 in 10.0 mi East 6.9 mph - N/A   Clear
5:56 PM 93.9 °F 97.5 °F 66.9 °F 41% 29.95 in 10.0 mi Variable 3.5 mph - N/A   Clear
6:56 PM 91.0 °F 95.6 °F 69.1 °F 48% 29.95 in 10.0 mi Calm Calm - N/A   Clear
7:56 PM 87.1 °F 91.3 °F 69.1 °F 55% 29.94 in 10.0 mi Variable 3.5 mph - N/A   Clear
8:56 PM 81.0 °F 84.9 °F 71.1 °F 72% 29.95 in 10.0 mi Calm Calm - N/A   Clear
9:56 PM 79.0 °F - 69.1 °F 72% 29.96 in 10.0 mi Calm Calm - N/A   Clear
10:56 PM 80.1 °F 81.9 °F 64.9 °F 60% 29.94 in 10.0 mi Calm Calm - N/A   Clear
11:56 PM 79.0 °F - 64.0 °F 60% 29.94 in 10.0 mi Calm Calm - N/A   Clear